When you browse on this site, cookies collect data to enhance your experience and personalize the content and advertising you see.
Visit our Privacy Policy to learn more. By continuing to use the site, you agree to this use of cookies and data.
  • In United Kingdom
  • List of Countries
  • For 7 days
  • Water Temperature
  • Satellite Maps
  • Weather Map
  • Weather Widgets
  • user-avatar
    Login

    Hourly Weather Abertillery

    Today, 26 June, Wednesday

    Time Temperature Precipitation Wind Pressure Humidity
    00:00 +14°C° 0 mm 3 mps 748 mmHg 96%
    01:00 +14°C° 0 mm 3 mps 748 mmHg 96%
    02:00 +13°C° 0 mm 3 mps 748 mmHg 96%
    03:00 +13°C° 0 mm 3 mps 748 mmHg 96%
    04:00 +13°C° 0 mm 4 mps 748 mmHg 95%
    05:00 +14°C° 0 mm 4 mps 749 mmHg 95%
    06:00 +14°C° 0 mm 5 mps 749 mmHg 94%
    07:00 +14°C° 0 mm 5 mps 749 mmHg 93%
    08:00 +15°C° 0 mm 5 mps 750 mmHg 91%
    09:00 +15°C° 0 mm 5 mps 750 mmHg 90%
    10:00 +15°C° 0 mm 5 mps 751 mmHg 89%
    11:00 +16°C° 0 mm 6 mps 751 mmHg 87%
    12:00 +16°C° 0 mm 6 mps 751 mmHg 86%
    13:00 +17°C° 0 mm 6 mps 751 mmHg 85%
    14:00 +17°C° 0 mm 7 mps 750 mmHg 84%
    15:00 +18°C° 0 mm 7 mps 750 mmHg 83%
    16:00 +17°C° 0 mm 7 mps 750 mmHg 84%
    17:00 +17°C° 0 mm 7 mps 750 mmHg 85%
    18:00 +16°C° 0 mm 7 mps 750 mmHg 87%
    19:00 +15°C° 0 mm 7 mps 750 mmHg 88%
    20:00 +14°C° 0 mm 6 mps 751 mmHg 90%
    21:00 +13°C° 0 mm 6 mps 751 mmHg 92%
    22:00 +11°C° 0 mm 6 mps 751 mmHg 92%
    23:00 +10°C° 0 mm 6 mps 751 mmHg 92%

    Tomorrow, 27 June, Thursday

    Time Temperature Precipitation Wind Pressure Humidity
    00:00 +10°C° 0 mm 6 mps 751 mmHg 92%
    01:00 +9°C° 0 mm 5 mps 751 mmHg 92%
    02:00 +9°C° 0 mm 5 mps 751 mmHg 92%
    03:00 +8°C° 0 mm 4 mps 751 mmHg 91%
    04:00 +8°C° 0 mm 5 mps 751 mmHg 89%
    05:00 +9°C° 0 mm 5 mps 751 mmHg 88%
    06:00 +9°C° 0 mm 5 mps 751 mmHg 86%
    07:00 +11°C° 0 mm 6 mps 751 mmHg 82%
    08:00 +13°C° 0 mm 6 mps 751 mmHg 79%
    09:00 +14°C° 0 mm 7 mps 751 mmHg 76%
    10:00 +15°C° 0 mm 7 mps 751 mmHg 74%
    11:00 +17°C° 0 mm 7 mps 751 mmHg 73%
    12:00 +18°C° 0 mm 7 mps 751 mmHg 71%
    13:00 +18°C° 0 mm 7 mps 751 mmHg 73%
    14:00 +20°C° 0 mm 7 mps 751 mmHg 75%
    15:00 +21°C° 0 mm 8 mps 750 mmHg 77%
    16:00 +20°C° 0 mm 8 mps 750 mmHg 79%
    17:00 +20°C° 0 mm 8 mps 749 mmHg 81%
    18:00 +18°C° 0 mm 8 mps 749 mmHg 83%
    19:00 +17°C° 0 mm 8 mps 749 mmHg 85%
    20:00 +16°C° 0 mm 7 mps 749 mmHg 87%
    21:00 +14°C° 0 mm 7 mps 749 mmHg 88%
    22:00 +12°C° 0 mm 7 mps 749 mmHg 89%
    23:00 +11°C° 0 mm 6 mps 749 mmHg 90%

    Day after tomorrow, 28 June, Friday

    Time Temperature Precipitation Wind Pressure Humidity
    00:00 +10°C° 0 mm 5 mps 749 mmHg 90%
    01:00 +9°C° 0 mm 5 mps 748 mmHg 90%
    02:00 +9°C° 0 mm 5 mps 748 mmHg 91%
    03:00 +8°C° 0 mm 5 mps 748 mmHg 91%
    04:00 +9°C° 0 mm 5 mps 747 mmHg 89%
    05:00 +9°C° 0 mm 5 mps 747 mmHg 88%
    06:00 +10°C° 0 mm 5 mps 747 mmHg 87%
    07:00 +12°C° 0 mm 5 mps 747 mmHg 84%
    08:00 +14°C° 0 mm 6 mps 747 mmHg 81%
    09:00 +15°C° 0 mm 6 mps 747 mmHg 78%
    10:00 +17°C° 0 mm 6 mps 747 mmHg 77%
    11:00 +18°C° 0 mm 7 mps 746 mmHg 76%
    12:00 +21°C° 0 mm 7 mps 746 mmHg 75%
    13:00 +21°C° 0 mm 7 mps 746 mmHg 74%
    14:00 +22°C° 0 mm 7 mps 746 mmHg 74%
    15:00 +22°C° 0 mm 7 mps 745 mmHg 74%
    16:00 +22°C° 0 mm 7 mps 745 mmHg 76%
    17:00 +21°C° 0 mm 6 mps 744 mmHg 77%
    18:00 +21°C° 0 mm 6 mps 744 mmHg 79%
    19:00 +19°C° 0 mm 5 mps 744 mmHg 82%
    20:00 +17°C° 0 mm 4 mps 744 mmHg 85%
    21:00 +14°C° 0 mm 3 mps 744 mmHg 88%
    22:00 +13°C° 0 mm 3 mps 743 mmHg 88%
    23:00 +14°C° 0 mm 2 mps 743 mmHg 89%

    29 June, Saturday

    Time Temperature Precipitation Wind Pressure Humidity
    00:00 +13°C° 0 mm 2 mps 743 mmHg 90%
    01:00 +13°C° 0 mm 2 mps 742 mmHg 91%
    02:00 +13°C° 0 mm 2 mps 742 mmHg 92%
    03:00 +12°C° 0 mm 2 mps 742 mmHg 93%
    04:00 +13°C° 0 mm 2 mps 741 mmHg 92%
    05:00 +14°C° 0 mm 2 mps 741 mmHg 90%
    06:00 +15°C° 0 mm 2 mps 741 mmHg 89%
    07:00 +16°C° 0 mm 2 mps 741 mmHg 88%
    08:00 +17°C° 0 mm 2 mps 741 mmHg 86%
    09:00 +18°C° 0 mm 2 mps 741 mmHg 85%
    10:00 +19°C° 0 mm 1 mps 741 mmHg 86%
    11:00 +20°C° 0 mm 1 mps 740 mmHg 86%
    12:00 +20°C° 0 mm 1 mps 740 mmHg 87%
    13:00 +19°C° 0 mm 2 mps 740 mmHg 87%
    14:00 +20°C° 0 mm 2 mps 740 mmHg 87%
    15:00 +20°C° 0 mm 3 mps 740 mmHg 87%
    16:00 +19°C° 0 mm 4 mps 739 mmHg 84%
    17:00 +19°C° 0 mm 4 mps 739 mmHg 82%
    18:00 +19°C° 0 mm 5 mps 739 mmHg 79%
    19:00 +17°C° 0 mm 4 mps 739 mmHg 84%
    20:00 +14°C° 0 mm 4 mps 739 mmHg 90%
    21:00 +12°C° 0 mm 4 mps 739 mmHg 95%
    22:00 +12°C° 0 mm 4 mps 740 mmHg 94%
    23:00 +13°C° 0 mm 5 mps 740 mmHg 94%

    30 June, Sunday

    Time Temperature Precipitation Wind Pressure Humidity
    00:00 +13°C° 0 mm 5 mps 740 mmHg 93%
    01:00 +13°C° 0 mm 5 mps 739 mmHg 94%
    02:00 +12°C° 0 mm 5 mps 739 mmHg 95%
    03:00 +12°C° 0 mm 5 mps 739 mmHg 96%
    04:00 +12°C° 0 mm 5 mps 739 mmHg 95%
    05:00 +13°C° 0 mm 5 mps 740 mmHg 93%
    06:00 +13°C° 0 mm 5 mps 740 mmHg 92%
    07:00 +14°C° 0 mm 5 mps 740 mmHg 89%
    08:00 +15°C° 0 mm 5 mps 741 mmHg 86%
    09:00 +15°C° 0 mm 5 mps 741 mmHg 84%
    10:00 +16°C° 0 mm 6 mps 741 mmHg 81%
    11:00 +17°C° 0 mm 6 mps 741 mmHg 79%
    12:00 +18°C° 0 mm 7 mps 741 mmHg 76%
    13:00 +17°C° 0 mm 7 mps 742 mmHg 76%
    14:00 +17°C° 0 mm 7 mps 742 mmHg 76%
    15:00 +17°C° 0 mm 7 mps 742 mmHg 76%
    16:00 +17°C° 0.1 mm 7 mps 742 mmHg 78%
    17:00 +16°C° 0.1 mm 6 mps 742 mmHg 80%
    18:00 +16°C° 0.1 mm 6 mps 742 mmHg 82%
    19:00 +14°C° 0 mm 5 mps 742 mmHg 87%
    20:00 +13°C° 0 mm 4 mps 742 mmHg 91%
    21:00 +12°C° 0 mm 4 mps 743 mmHg 95%
    22:00 +11°C° 0 mm 3 mps 743 mmHg 95%
    23:00 +11°C° 0 mm 3 mps 743 mmHg 95%

    1 July, Monday

    Time Temperature Precipitation Wind Pressure Humidity
    00:00 +10°C° 0 mm 2 mps 743 mmHg 95%
    01:00 +9°C° 0 mm 2 mps 743 mmHg 95%
    02:00 +9°C° 0 mm 2 mps 743 mmHg 94%
    03:00 +8°C° 0 mm 2 mps 744 mmHg 94%
    04:00 +9°C° 0 mm 2 mps 744 mmHg 92%
    05:00 +9°C° 0 mm 2 mps 744 mmHg 91%
    06:00 +10°C° 0 mm 2 mps 745 mmHg 90%
    07:00 +11°C° 0 mm 3 mps 745 mmHg 85%
    08:00 +12°C° 0 mm 4 mps 745 mmHg 81%
    09:00 +13°C° 0 mm 5 mps 745 mmHg 76%
    10:00 +14°C° 0 mm 5 mps 746 mmHg 74%
    11:00 +15°C° 0 mm 4 mps 746 mmHg 73%
    12:00 +15°C° 0 mm 4 mps 746 mmHg 71%
    13:00 +15°C° 0 mm 4 mps 746 mmHg 71%
    14:00 +15°C° 0 mm 4 mps 746 mmHg 72%
    15:00 +15°C° 0 mm 4 mps 746 mmHg 72%
    16:00 +15°C° 0 mm 4 mps 746 mmHg 73%
    17:00 +15°C° 0 mm 4 mps 746 mmHg 74%
    18:00 +14°C° 0 mm 4 mps 746 mmHg 75%
    19:00 +13°C° 0 mm 4 mps 747 mmHg 79%
    20:00 +11°C° 0 mm 3 mps 747 mmHg 84%
    21:00 +10°C° 0 mm 2 mps 747 mmHg 89%
    22:00 +9°C° 0 mm 2 mps 747 mmHg 89%
    23:00 +9°C° 0 mm 2 mps 747 mmHg 89%
    Show more